When you browse on this site, cookies collect data to enhance your experience and personalize the content and advertising you see.
Visit our Privacy Policy to learn more. By continuing to use the site, you agree to this use of cookies and data.
  • In Schweiz
  • Länderverzeichnis
  • Für 7 Tage
  • Wassertemperatur
  • Wetterkarte
  • Widgets
  • user-avatar
    Anmelden

    Stündliche Wetter Marin

    Heute, 17 September, Dienstag

    Zeit Temperatur Niederschläge Wind Luftdruck Luftfeuchtigkeit
    00:00 +19°C° 0 mm 1 m/S 755 mmHg 92%
    01:00 +19°C° 0 mm 1 m/S 755 mmHg 92%
    02:00 +19°C° 0 mm 1 m/S 755 mmHg 91%
    03:00 +19°C° 0 mm 1 m/S 755 mmHg 91%
    04:00 +19°C° 0 mm 1 m/S 755 mmHg 91%
    05:00 +19°C° 0 mm 1 m/S 755 mmHg 91%
    06:00 +21°C° 0 mm 1 m/S 755 mmHg 83%
    07:00 +23°C° 0 mm 1 m/S 755 mmHg 76%
    08:00 +25°C° 0 mm 1 m/S 755 mmHg 69%
    09:00 +27°C° 0 mm 1 m/S 755 mmHg 59%
    10:00 +29°C° 0 mm 1 m/S 755 mmHg 49%
    11:00 +32°C° 0 mm 2 m/S 754 mmHg 39%
    12:00 +30°C° 0.4 mm 1 m/S 754 mmHg 46%
    13:00 +28°C° 0.4 mm 1 m/S 754 mmHg 53%
    14:00 +27°C° 0.4 mm 1 m/S 754 mmHg 61%
    15:00 +25°C° 0.8 mm 1 m/S 753 mmHg 68%
    16:00 +24°C° 0.8 mm 1 m/S 753 mmHg 75%
    17:00 +23°C° 0.8 mm 1 m/S 753 mmHg 82%
    18:00 +22°C° 0.7 mm 1 m/S 754 mmHg 85%
    19:00 +21°C° 0.7 mm 1 m/S 754 mmHg 88%
    20:00 +20°C° 0.7 mm 1 m/S 754 mmHg 92%
    21:00 +20°C° 0 mm 1 m/S 754 mmHg 91%
    22:00 +18°C° 0 mm 0 m/S 754 mmHg 91%
    23:00 +18°C° 0 mm 0 m/S 754 mmHg 90%

    Morgen, 18 September, Mittwoch

    Zeit Temperatur Niederschläge Wind Luftdruck Luftfeuchtigkeit
    00:00 +17°C° 0 mm 0 m/S 754 mmHg 91%
    01:00 +17°C° 0 mm 0 m/S 753 mmHg 92%
    02:00 +17°C° 0 mm 0 m/S 753 mmHg 93%
    03:00 +16°C° 0 mm 0 m/S 754 mmHg 94%
    04:00 +16°C° 0 mm 0 m/S 754 mmHg 94%
    05:00 +16°C° 0 mm 0 m/S 754 mmHg 94%
    06:00 +18°C° 0 mm 0 m/S 754 mmHg 87%
    07:00 +20°C° 0 mm 0 m/S 754 mmHg 80%
    08:00 +22°C° 0 mm 0 m/S 754 mmHg 73%
    09:00 +26°C° 0 mm 1 m/S 754 mmHg 64%
    10:00 +28°C° 0 mm 1 m/S 754 mmHg 55%
    11:00 +30°C° 0 mm 1 m/S 754 mmHg 46%
    12:00 +30°C° 0 mm 2 m/S 754 mmHg 49%
    13:00 +29°C° 0 mm 2 m/S 754 mmHg 51%
    14:00 +28°C° 0 mm 2 m/S 754 mmHg 54%
    15:00 +26°C° 0.6 mm 2 m/S 754 mmHg 66%
    16:00 +24°C° 0.6 mm 1 m/S 754 mmHg 77%
    17:00 +22°C° 0.6 mm 1 m/S 754 mmHg 89%
    18:00 +21°C° 0.6 mm 1 m/S 754 mmHg 91%
    19:00 +20°C° 0.6 mm 1 m/S 755 mmHg 93%
    20:00 +19°C° 0.6 mm 1 m/S 756 mmHg 94%
    21:00 +17°C° 0.1 mm 0 m/S 755 mmHg 95%
    22:00 +17°C° 0.1 mm 0 m/S 755 mmHg 96%
    23:00 +16°C° 0.1 mm 0 m/S 755 mmHg 96%

    übermorgen, 19 September, Donnerstag

    Zeit Temperatur Niederschläge Wind Luftdruck Luftfeuchtigkeit
    00:00 +16°C° 0 mm 0 m/S 755 mmHg 96%
    01:00 +16°C° 0 mm 0 m/S 755 mmHg 96%
    02:00 +16°C° 0 mm 0 m/S 755 mmHg 97%
    03:00 +16°C° 0.1 mm 0 m/S 755 mmHg 97%
    04:00 +16°C° 0.1 mm 0 m/S 754 mmHg 97%
    05:00 +16°C° 0.1 mm 0 m/S 754 mmHg 97%
    06:00 +17°C° 0.3 mm 0 m/S 755 mmHg 93%
    07:00 +19°C° 0.3 mm 0 m/S 755 mmHg 88%
    08:00 +21°C° 0.3 mm 0 m/S 755 mmHg 84%
    09:00 +23°C° 0.1 mm 0 m/S 755 mmHg 75%
    10:00 +27°C° 0.1 mm 1 m/S 755 mmHg 65%
    11:00 +29°C° 0.1 mm 1 m/S 755 mmHg 56%
    12:00 +28°C° 0.2 mm 1 m/S 754 mmHg 58%
    13:00 +27°C° 0.2 mm 2 m/S 754 mmHg 61%
    14:00 +26°C° 0.2 mm 2 m/S 754 mmHg 64%
    15:00 +25°C° 0.2 mm 2 m/S 754 mmHg 71%
    16:00 +23°C° 0.2 mm 1 m/S 754 mmHg 79%
    17:00 +21°C° 0.2 mm 1 m/S 754 mmHg 86%
    18:00 +20°C° 0.2 mm 1 m/S 754 mmHg 89%
    19:00 +20°C° 0.2 mm 1 m/S 755 mmHg 91%
    20:00 +19°C° 0.2 mm 1 m/S 755 mmHg 94%
    21:00 +19°C° 0 mm 1 m/S 755 mmHg 95%
    22:00 +17°C° 0 mm 0 m/S 755 mmHg 96%
    23:00 +16°C° 0 mm 0 m/S 754 mmHg 96%

    20 September, Freitag

    Zeit Temperatur Niederschläge Wind Luftdruck Luftfeuchtigkeit
    00:00 +16°C° 0 mm 0 m/S 754 mmHg 97%
    01:00 +16°C° 0 mm 0 m/S 754 mmHg 97%
    02:00 +15°C° 0 mm 0 m/S 753 mmHg 98%
    03:00 +15°C° 0 mm 0 m/S 753 mmHg 98%
    04:00 +15°C° 0 mm 0 m/S 753 mmHg 98%
    05:00 +15°C° 0 mm 0 m/S 753 mmHg 97%
    06:00 +17°C° 0 mm 0 m/S 753 mmHg 92%
    07:00 +18°C° 0 mm 0 m/S 753 mmHg 87%
    08:00 +22°C° 0 mm 1 m/S 753 mmHg 82%
    09:00 +23°C° 0 mm 1 m/S 753 mmHg 74%
    10:00 +25°C° 0 mm 2 m/S 753 mmHg 67%
    11:00 +26°C° 0 mm 2 m/S 753 mmHg 59%
    12:00 +26°C° 0.1 mm 2 m/S 752 mmHg 62%
    13:00 +25°C° 0.1 mm 2 m/S 752 mmHg 65%
    14:00 +24°C° 0.1 mm 2 m/S 752 mmHg 67%
    15:00 +23°C° 0 mm 2 m/S 752 mmHg 73%
    16:00 +20°C° 0 mm 2 m/S 752 mmHg 78%
    17:00 +19°C° 0 mm 2 m/S 752 mmHg 83%
    18:00 +18°C° 0 mm 2 m/S 752 mmHg 88%
    19:00 +17°C° 0 mm 2 m/S 752 mmHg 92%
    20:00 +16°C° 0 mm 2 m/S 753 mmHg 97%
    21:00 +16°C° 0 mm 2 m/S 753 mmHg 97%
    22:00 +16°C° 0 mm 2 m/S 752 mmHg 97%
    23:00 +15°C° 0 mm 2 m/S 752 mmHg 97%

    21 September, Samstag

    Zeit Temperatur Niederschläge Wind Luftdruck Luftfeuchtigkeit
    00:00 +15°C° 0 mm 2 m/S 752 mmHg 97%
    01:00 +15°C° 0 mm 2 m/S 752 mmHg 96%
    02:00 +15°C° 0 mm 2 m/S 751 mmHg 96%
    03:00 +15°C° 0 mm 2 m/S 751 mmHg 95%
    04:00 +15°C° 0 mm 2 m/S 751 mmHg 93%
    05:00 +15°C° 0 mm 2 m/S 751 mmHg 92%
    06:00 +16°C° 0 mm 3 m/S 751 mmHg 87%
    07:00 +18°C° 0 mm 3 m/S 751 mmHg 81%
    08:00 +19°C° 0 mm 3 m/S 752 mmHg 75%
    09:00 +20°C° 0 mm 3 m/S 752 mmHg 70%
    10:00 +22°C° 0 mm 4 m/S 752 mmHg 64%
    11:00 +23°C° 0 mm 5 m/S 752 mmHg 59%
    12:00 +23°C° 0 mm 5 m/S 752 mmHg 61%
    13:00 +22°C° 0 mm 5 m/S 751 mmHg 62%
    14:00 +22°C° 0 mm 5 m/S 751 mmHg 64%
    15:00 +21°C° 0.1 mm 4 m/S 751 mmHg 69%
    16:00 +20°C° 0.1 mm 4 m/S 751 mmHg 74%
    17:00 +20°C° 0.1 mm 4 m/S 752 mmHg 80%
    18:00 +19°C° 0.1 mm 3 m/S 752 mmHg 83%
    19:00 +18°C° 0.1 mm 3 m/S 752 mmHg 86%
    20:00 +18°C° 0.1 mm 3 m/S 753 mmHg 89%
    21:00 +18°C° 0.4 mm 3 m/S 753 mmHg 90%
    22:00 +18°C° 0.4 mm 3 m/S 753 mmHg 91%
    23:00 +18°C° 0.4 mm 3 m/S 753 mmHg 91%

    22 September, Sonntag

    Zeit Temperatur Niederschläge Wind Luftdruck Luftfeuchtigkeit
    00:00 +18°C° 0.8 mm 2 m/S 753 mmHg 93%
    01:00 +17°C° 0.8 mm 2 m/S 753 mmHg 95%
    02:00 +18°C° 0.8 mm 1 m/S 753 mmHg 98%
    03:00 +18°C° 0.4 mm 1 m/S 753 mmHg 97%
    04:00 +18°C° 0.4 mm 1 m/S 753 mmHg 96%
    05:00 +15°C° 0.4 mm 0 m/S 753 mmHg 96%
    06:00 +16°C° 0.2 mm 0 m/S 754 mmHg 93%
    07:00 +18°C° 0.2 mm 1 m/S 754 mmHg 89%
    08:00 +19°C° 0.2 mm 1 m/S 755 mmHg 86%
    09:00 +20°C° 0 mm 1 m/S 755 mmHg 78%
    10:00 +22°C° 0 mm 1 m/S 755 mmHg 70%
    11:00 +23°C° 0 mm 2 m/S 756 mmHg 62%
    12:00 +23°C° 0 mm 2 m/S 756 mmHg 61%
    13:00 +23°C° 0 mm 2 m/S 756 mmHg 60%
    14:00 +22°C° 0 mm 3 m/S 756 mmHg 59%
    15:00 +21°C° 0 mm 2 m/S 756 mmHg 63%
    16:00 +19°C° 0 mm 2 m/S 757 mmHg 68%
    17:00 +19°C° 0 mm 1 m/S 757 mmHg 72%
    18:00 +18°C° 0 mm 1 m/S 758 mmHg 78%
    19:00 +15°C° 0 mm 1 m/S 758 mmHg 84%
    20:00 +14°C° 0 mm 1 m/S 759 mmHg 90%
    21:00 +13°C° 0 mm 1 m/S 759 mmHg 90%
    22:00 +13°C° 0 mm 1 m/S 759 mmHg 89%
    23:00 +13°C° 0 mm 1 m/S 759 mmHg 88%
    Mehr zeigen